Fallon NAS, NV

12:06 PM PDT on June 23, 2017 (GMT -0700)
Fallon Naval Air Station

Weather History for KNFL - May, 2012

Change the Weather History Date:

Sunday, May 6, 2012

  Actual Average Record
Temperature  
Mean Temperature 52 °F -  
Max Temperature 70 °F 68 °F 89 °F (1934)
Min Temperature 35 °F 38 °F 21 °F (1964)
Degree Days  
Heating Degree Days 13    
Growing Degree Days 2 (Base 50)    
Moisture  
Dew Point 16 °F    
Average Humidity 26    
Maximum Humidity 48    
Minimum Humidity 9    
Precipitation  
Precipitation 0.00 in - - ()
Sea Level Pressure  
Sea Level Pressure 30.13 in    
Wind  
Wind Speed 7 mph (North)    
Max Wind Speed 14 mph    
Max Gust Speed 17 mph    
Visibility 10 miles    
Events      
Averages and records for this station are not official NWS values.
T = Trace of Precipitation, MM = Missing Value Source: NWS Daily Summary

Daily Weather History Graph

Daily Weather History Graph

Search for Another Location

Airport or City:

Trip Planner

Search our weather history database for the weather conditions in past years. The results will help you decide how hot, cold, wet, or windy it might be!

Date:

Astronomy

May. 06, 2012 Rise Set
Actual Time 5:49 AM PDT 7:53 PM PDT
Civil Twilight 5:19 AM PDT 8:23 PM PDT
Nautical Twilight 4:43 AM PDT 8:59 PM PDT
Astronomical Twilight 4:04 AM PDT 9:39 PM PDT
Moon 9:04 PM PDT (5/6) 6:04 AM PDT (5/6)
Length of Visible Light 15h 03m
Length of Day
14h 04m
Full, 99% of the Moon is Illuminated
May 6
Full
May 12
Last Quarter
May 20
New
May 28
First Quarter
Jun 4
Full

Hourly Weather History & Observations

Time (PDT) Temp. Windchill Dew Point Humidity Pressure Visibility Wind Dir Wind Speed Gust Speed Precip Events Conditions
12:56 AM 46.9 °F - 12.9 °F 25% 30.13 in 10.0 mi North 13.8 mph - N/A   Clear
1:56 AM 45.0 °F 39.7 °F 18.0 °F 34% 30.13 in 10.0 mi North 10.4 mph - N/A   Clear
2:56 AM 42.1 °F 37.1 °F 19.0 °F 40% 30.13 in 10.0 mi NNW 8.1 mph - N/A   Clear
3:56 AM 37.9 °F - 18.0 °F 45% 30.14 in 10.0 mi Calm Calm - N/A   Clear
4:56 AM 35.1 °F 32.2 °F 17.1 °F 48% 30.15 in 10.0 mi West 3.5 mph - N/A   Clear
5:56 AM 36.0 °F 31.1 °F 17.1 °F 46% 30.15 in 10.0 mi NW 5.8 mph - N/A   Clear
6:56 AM 39.0 °F - 19.0 °F 45% 30.17 in 10.0 mi Calm Calm - N/A   Clear
8:56 AM 48.0 °F - 19.9 °F 33% 30.19 in 10.0 mi Calm Calm - N/A   Clear
9:56 AM 51.1 °F - 19.0 °F 28% 30.18 in 10.0 mi Calm Calm - N/A   Clear
10:56 AM 55.9 °F - 19.0 °F 24% 30.17 in 10.0 mi Variable 5.8 mph - N/A   Clear
11:03 AM 55.4 °F - 19.4 °F 25% 30.29 in 10.0 mi Calm Calm - N/A   Clear
11:56 AM 59.0 °F - 18.0 °F 20% 30.16 in 10.0 mi Variable 4.6 mph - N/A   Clear
12:56 PM 64.0 °F - 17.1 °F 16% 30.14 in 10.0 mi NNE 9.2 mph - N/A   Clear
1:56 PM 64.0 °F - 18.0 °F 17% 30.13 in 10.0 mi Variable 5.8 mph - N/A   Clear
2:56 PM 68.0 °F - 15.1 °F 13% 30.11 in 10.0 mi North 9.2 mph - N/A   Clear
3:56 PM 69.1 °F - 12.0 °F 11% 30.09 in 10.0 mi NNE 11.5 mph 17.3 mph N/A   Clear
4:56 PM 69.1 °F - 7.0 °F 9% 30.08 in 10.0 mi NE 10.4 mph 17.3 mph N/A   Clear
5:56 PM 69.1 °F - 10.9 °F 11% 30.07 in 10.0 mi NNE 8.1 mph - N/A   Clear
6:56 PM 66.9 °F - 12.0 °F 12% 30.07 in 10.0 mi North 6.9 mph - N/A   Clear
7:56 PM 60.1 °F - 16.0 °F 18% 30.07 in 10.0 mi North 4.6 mph - N/A   Clear
8:56 PM 55.9 °F - 15.1 °F 20% 30.09 in 10.0 mi North 9.2 mph - N/A   Clear
9:56 PM 50.0 °F - 16.0 °F 26% 30.11 in 10.0 mi NNE 8.1 mph - N/A   Clear
10:56 PM 48.0 °F - 16.0 °F 28% 30.11 in 10.0 mi NNE 4.6 mph - N/A   Clear
11:56 PM 45.0 °F 42.6 °F 16.0 °F 31% 30.11 in 10.0 mi North 4.6 mph - N/A   Clear